Tracking 27405 objects as of 2-Jun-2023
HD Live streaming from Space Station
objects crossing your sky now

MOLNIYA 1-S

Track MOLNIYA 1-S now!
MOLNIYA 1-S is classified as:


NORAD ID: 7392
Int'l Code: 1974-060A
Perigee: 35,734.7 km
Apogee: 35,827.5 km
Inclination: 4.2 °
Period: 1,435.5 minutes
Semi major axis: 42152 km
RCS: 1.5848 m2 (large)
Launch date: July 29, 1974
Source: Commonwealth of Independent States (former USSR) (CIS)
Launch site: TYURATAM MISSILE AND SPACE COMPLEX (TTMTR)
Your satellite tracking list
Your tracking list is empty




NASA's NSSDC Master Catalog

Two Line Element Set (TLE):
1 07392U 74060A   23152.09985812  .00000135  00000-0  00000-0 0  9992
2 07392   4.2312 277.4753 0011005 216.9988 199.8956  1.00316897123020
Source of the keplerian elements: AFSPC